Wetterdaten: Freitag, 11.05.2012
Datum Zeit Temp. A. Feuchte A. Regen Wind Richtung Richtung Taupunkt Windchill Windben
11.05.2012 00:00 14,2 C 70 % 0,0 l/m 0,3 km/h (0 Bft) N 360 8,8 C 12,3 C 0,0 km/h (0 Bft)
11.05.2012 00:02 14,3 C 70 % 0,0 l/m 0,5 km/h (0 Bft) NO 45 8,9 C 12,3 C 1,9 km/h (1 Bft)
11.05.2012 00:04 14,3 C 70 % 0,0 l/m 0,6 km/h (0 Bft) N-NO 22 8,9 C 12,3 C 2,4 km/h (1 Bft)
11.05.2012 00:06 14,2 C 71 % 0,0 l/m 0,8 km/h (0 Bft) N-NO 22 9,0 C 12,4 C 2,4 km/h (1 Bft)
11.05.2012 00:08 14,3 C 70 % 0,0 l/m 1,0 km/h (0 Bft) NO 45 8,9 C 12,5 C 2,6 km/h (1 Bft)
11.05.2012 00:10 14,3 C 70 % 0,0 l/m 0,8 km/h (0 Bft) NO 45 8,9 C 12,5 C 2,6 km/h (1 Bft)
11.05.2012 00:12 14,3 C 70 % 0,0 l/m 0,8 km/h (0 Bft) O-NO 67 8,9 C 12,5 C 2,3 km/h (1 Bft)
11.05.2012 00:14 14,3 C 70 % 0,0 l/m 0,8 km/h (0 Bft) NO 45 8,9 C 12,5 C 1,9 km/h (1 Bft)
11.05.2012 00:16 14,3 C 71 % 0,0 l/m 1,0 km/h (0 Bft) NO 45 9,1 C 12,5 C 3,2 km/h (1 Bft)
11.05.2012 00:18 14,2 C 71 % 0,0 l/m 1,6 km/h (1 Bft) NO 45 9,0 C 12,5 C 3,2 km/h (1 Bft)
11.05.2012 00:20 14,2 C 71 % 0,0 l/m 1,9 km/h (1 Bft) NO 45 9,0 C 12,6 C 3,4 km/h (1 Bft)
11.05.2012 00:22 14,1 C 71 % 0,0 l/m 2,1 km/h (1 Bft) O-NO 67 8,9 C 12,6 C 3,4 km/h (1 Bft)
11.05.2012 00:24 14,1 C 71 % 0,0 l/m 2,3 km/h (1 Bft) NO 45 8,9 C 12,6 C 2,7 km/h (1 Bft)
11.05.2012 00:26 14,1 C 71 % 0,0 l/m 2,1 km/h (1 Bft) O-NO 67 8,9 C 12,6 C 4,3 km/h (1 Bft)
11.05.2012 00:28 14,0 C 71 % 0,0 l/m 1,4 km/h (1 Bft) O-NO 67 8,8 C 12,5 C 1,6 km/h (1 Bft)
11.05.2012 00:30 14,1 C 70 % 0,0 l/m 1,0 km/h (0 Bft) O-NO 67 8,7 C 12,5 C 0,0 km/h (0 Bft)
11.05.2012 00:32 14,0 C 70 % 0,0 l/m 0,6 km/h (0 Bft) SO 135 8,6 C 12,4 C 1,6 km/h (1 Bft)
11.05.2012 00:34 13,9 C 70 % 0,0 l/m 0,3 km/h (0 Bft) S 180 8,5 C 12,3 C 1,6 km/h (1 Bft)
11.05.2012 00:36 13,8 C 71 % 0,0 l/m 0,2 km/h (0 Bft) S 180 8,6 C 12,3 C 0,0 km/h (0 Bft)
11.05.2012 00:38 13,7 C 71 % 0,0 l/m 0,0 km/h (0 Bft) SO 135 8,5 C 12,2 C 0,0 km/h (0 Bft)
11.05.2012 00:40 13,7 C 71 % 0,0 l/m 0,0 km/h (0 Bft) O 90 8,5 C 12,0 C 0,0 km/h (0 Bft)
11.05.2012 00:42 13,7 C 71 % 0,0 l/m 0,0 km/h (0 Bft) N-NO 22 8,5 C 12,0 C 0,0 km/h (0 Bft)
11.05.2012 00:44 13,7 C 71 % 0,0 l/m 0,0 km/h (0 Bft) W-NW 292 8,5 C 11,9 C 0,0 km/h (0 Bft)
11.05.2012 00:46 13,6 C 71 % 0,0 l/m 0,0 km/h (0 Bft) S 180 8,4 C 11,8 C 0,0 km/h (0 Bft)
11.05.2012 00:48 13,5 C 71 % 0,0 l/m 0,0 km/h (0 Bft) S 180 8,3 C 11,8 C 0,0 km/h (0 Bft)
11.05.2012 00:50 13,5 C 71 % 0,0 l/m 0,0 km/h (0 Bft) W-NW 292 8,3 C 11,6 C 0,0 km/h (0 Bft)
11.05.2012 00:52 13,5 C 71 % 0,0 l/m 0,2 km/h (0 Bft) W-SW 247 8,3 C 11,6 C 1,8 km/h (1 Bft)
11.05.2012 00:54 13,5 C 71 % 0,0 l/m 0,2 km/h (0 Bft) N-NW 337 8,3 C 11,6 C 1,8 km/h (1 Bft)
11.05.2012 00:56 13,5 C 71 % 0,0 l/m 0,2 km/h (0 Bft) N-NW 337 8,3 C 11,6 C 0,0 km/h (0 Bft)
11.05.2012 00:58 13,4 C 71 % 0,0 l/m 0,2 km/h (0 Bft) W-NW 292 8,3 C 11,5 C 0,0 km/h (0 Bft)
11.05.2012 01:00 13,4 C 71 % 0,0 l/m 0,2 km/h (0 Bft) N-NO 22 8,3 C 11,4 C 0,0 km/h (0 Bft)
11.05.2012 01:02 13,3 C 71 % 0,0 l/m 0,2 km/h (0 Bft) N-NW 337 8,2 C 11,3 C 0,0 km/h (0 Bft)
11.05.2012 01:04 13,2 C 71 % 0,0 l/m 0,0 km/h (0 Bft) N-NW 337 8,1 C 11,3 C 0,0 km/h (0 Bft)
11.05.2012 01:06 13,2 C 71 % 0,0 l/m 0,0 km/h (0 Bft) S 180 8,1 C 11,3 C 0,0 km/h (0 Bft)
11.05.2012 01:08 13,2 C 71 % 0,0 l/m 0,0 km/h (0 Bft) W-SW 247 8,1 C 11,2 C 0,0 km/h (0 Bft)
11.05.2012 01:10 13,2 C 72 % 0,0 l/m 0,0 km/h (0 Bft) W-SW 247 8,3 C 11,1 C 0,0 km/h (0 Bft)
11.05.2012 01:12 13,1 C 72 % 0,0 l/m 0,0 km/h (0 Bft) NW 315 8,2 C 11,1 C 0,0 km/h (0 Bft)
11.05.2012 01:14 13,1 C 72 % 0,0 l/m 0,0 km/h (0 Bft) W-NW 292 8,2 C 11,0 C 0,0 km/h (0 Bft)
11.05.2012 01:16 13,1 C 72 % 0,0 l/m 0,2 km/h (0 Bft) NW 315 8,2 C 10,9 C 0,0 km/h (0 Bft)
11.05.2012 01:18 13,0 C 72 % 0,0 l/m 0,2 km/h (0 Bft) NW 315 8,1 C 10,9 C 0,0 km/h (0 Bft)
11.05.2012 01:20 12,9 C 73 % 0,0 l/m 0,2 km/h (0 Bft) N-NW 337 8,2 C 10,9 C 0,0 km/h (0 Bft)
11.05.2012 01:22 12,9 C 73 % 0,0 l/m 0,2 km/h (0 Bft) N-NW 337 8,2 C 10,9 C 0,0 km/h (0 Bft)
11.05.2012 01:24 12,9 C 73 % 0,0 l/m 0,2 km/h (0 Bft) N-NW 337 8,2 C 10,9 C 0,0 km/h (0 Bft)
11.05.2012 01:26 12,8 C 73 % 0,0 l/m 0,2 km/h (0 Bft) W-NW 292 8,1 C 10,9 C 0,0 km/h (0 Bft)
11.05.2012 01:28 12,8 C 73 % 0,0 l/m 0,0 km/h (0 Bft) N 360 8,1 C 10,9 C 0,0 km/h (0 Bft)
11.05.2012 01:30 12,8 C 73 % 0,0 l/m 0,0 km/h (0 Bft) NO 45 8,1 C 10,9 C 0,0 km/h (0 Bft)
11.05.2012 01:32 12,9 C 73 % 0,0 l/m 0,0 km/h (0 Bft) W-SW 247 8,2 C 10,9 C 0,0 km/h (0 Bft)
11.05.2012 01:34 12,8 C 73 % 0,0 l/m 0,0 km/h (0 Bft) SO 135 8,1 C 10,8 C 0,0 km/h (0 Bft)
11.05.2012 01:36 12,7 C 73 % 0,0 l/m 0,0 km/h (0 Bft) O-SO 112 8,0 C 10,7 C 0,0 km/h (0 Bft)
11.05.2012 01:38 12,7 C 73 % 0,0 l/m 0,0 km/h (0 Bft) W-SW 247 8,0 C 10,7 C 0,0 km/h (0 Bft)
11.05.2012 01:40 12,7 C 73 % 0,0 l/m 0,0 km/h (0 Bft) N-NO 22 8,0 C 10,8 C 0,0 km/h (0 Bft)
11.05.2012 01:42 12,7 C 73 % 0,0 l/m 0,0 km/h (0 Bft) SO 135 8,0 C 10,8 C 0,0 km/h (0 Bft)
11.05.2012 01:44 12,7 C 73 % 0,0 l/m 0,0 km/h (0 Bft) N 360 8,0 C 10,8 C 0,0 km/h (0 Bft)
11.05.2012 01:46 12,6 C 73 % 0,0 l/m 0,0 km/h (0 Bft) N 360 7,9 C 10,7 C 0,0 km/h (0 Bft)
11.05.2012 01:48 12,6 C 73 % 0,0 l/m 0,0 km/h (0 Bft) N 360 7,9 C 10,7 C 0,0 km/h (0 Bft)
11.05.2012 01:50 12,6 C 73 % 0,0 l/m 0,0 km/h (0 Bft) N 360 7,9 C 10,7 C 0,0 km/h (0 Bft)
11.05.2012 01:52 12,6 C 74 % 0,0 l/m 0,0 km/h (0 Bft) N-NO 22 8,1 C 10,7 C 0,0 km/h (0 Bft)
11.05.2012 01:54 12,6 C 74 % 0,0 l/m 0,3 km/h (0 Bft) N-NO 22 8,1 C 10,8 C 2,9 km/h (1 Bft)
11.05.2012 01:56 12,7 C 74 % 0,0 l/m 0,5 km/h (0 Bft) N 360 8,2 C 10,9 C 2,9 km/h (1 Bft)
11.05.2012 01:58 12,8 C 74 % 0,0 l/m 0,5 km/h (0 Bft) NO 45 8,3 C 11,0 C 1,6 km/h (1 Bft)
11.05.2012 02:00 12,9 C 74 % 0,0 l/m 0,6 km/h (0 Bft) S-SO 157 8,4 C 11,2 C 0,0 km/h (0 Bft)
11.05.2012 02:02 12,9 C 74 % 0,0 l/m 0,5 km/h (0 Bft) SO 135 8,4 C 11,4 C 1,9 km/h (1 Bft)
11.05.2012 02:04 12,9 C 73 % 0,0 l/m 0,5 km/h (0 Bft) W-NW 292 8,2 C 11,6 C 1,9 km/h (1 Bft)
11.05.2012 02:06 13,0 C 73 % 0,0 l/m 0,3 km/h (0 Bft) N 360 8,3 C 11,6 C 0,0 km/h (0 Bft)
11.05.2012 02:08 13,0 C 73 % 0,0 l/m 0,2 km/h (0 Bft) N-NW 337 8,3 C 11,7 C 0,0 km/h (0 Bft)
11.05.2012 02:10 13,0 C 73 % 0,0 l/m 0,2 km/h (0 Bft) NO 45 8,3 C 11,7 C 0,0 km/h (0 Bft)
11.05.2012 02:12 13,0 C 73 % 0,0 l/m 0,0 km/h (0 Bft) N-NO 22 8,3 C 11,7 C 0,0 km/h (0 Bft)
11.05.2012 02:14 13,0 C 73 % 0,0 l/m 0,0 km/h (0 Bft) SO 135 8,3 C 11,8 C 0,0 km/h (0 Bft)
11.05.2012 02:16 13,0 C 73 % 0,0 l/m 0,0 km/h (0 Bft) N 360 8,3 C 11,8 C 0,0 km/h (0 Bft)
11.05.2012 02:18 13,1 C 73 % 0,0 l/m 0,0 km/h (0 Bft) S-SO 157 8,4 C 11,8 C 0,0 km/h (0 Bft)
11.05.2012 02:20 13,0 C 73 % 0,0 l/m 0,0 km/h (0 Bft) O-SO 112 8,3 C 11,8 C 0,0 km/h (0 Bft)
11.05.2012 02:22 13,0 C 73 % 0,0 l/m 0,0 km/h (0 Bft) S 180 8,3 C 11,8 C 0,0 km/h (0 Bft)
11.05.2012 02:24 12,9 C 73 % 0,0 l/m 0,2 km/h (0 Bft) S 180 8,2 C 11,8 C 1,8 km/h (1 Bft)
11.05.2012 02:26 12,9 C 73 % 0,0 l/m 0,2 km/h (0 Bft) S-SO 157 8,2 C 11,8 C 1,8 km/h (1 Bft)
11.05.2012 02:28 12,9 C 73 % 0,0 l/m 0,2 km/h (0 Bft) S-SW 202 8,2 C 11,8 C 0,0 km/h (0 Bft)
11.05.2012 02:30 12,9 C 73 % 0,0 l/m 0,2 km/h (0 Bft) N-NO 22 8,2 C 11,7 C 0,0 km/h (0 Bft)
11.05.2012 02:32 12,9 C 73 % 0,0 l/m 0,2 km/h (0 Bft) NO 45 8,2 C 11,6 C 0,0 km/h (0 Bft)
11.05.2012 02:34 12,8 C 73 % 0,0 l/m 0,0 km/h (0 Bft) N-NO 22 8,1 C 11,5 C 0,0 km/h (0 Bft)
11.05.2012 02:36 12,8 C 73 % 0,0 l/m 0,0 km/h (0 Bft) S-SO 157 8,1 C 11,4 C 0,0 km/h (0 Bft)
11.05.2012 02:38 12,8 C 73 % 0,0 l/m 0,0 km/h (0 Bft) S-SO 157 8,1 C 11,4 C 0,0 km/h (0 Bft)
11.05.2012 02:40 12,8 C 73 % 0,0 l/m 0,0 km/h (0 Bft) S-SO 157 8,1 C 11,3 C 0,0 km/h (0 Bft)
11.05.2012 02:42 12,7 C 73 % 0,0 l/m 0,0 km/h (0 Bft) NO 45 8,0 C 11,3 C 0,0 km/h (0 Bft)
11.05.2012 02:44 12,7 C 73 % 0,0 l/m 0,0 km/h (0 Bft) SO 135 8,0 C 11,2 C 0,0 km/h (0 Bft)
11.05.2012 02:46 12,7 C 73 % 0,0 l/m 0,0 km/h (0 Bft) SO 135 8,0 C 11,2 C 0,0 km/h (0 Bft)
11.05.2012 02:48 12,6 C 73 % 0,0 l/m 0,0 km/h (0 Bft) S 180 7,9 C 11,2 C 0,0 km/h (0 Bft)
11.05.2012 02:50 12,7 C 73 % 0,0 l/m 0,2 km/h (0 Bft) S 180 8,0 C 11,1 C 0,0 km/h (0 Bft)
11.05.2012 02:52 12,5 C 73 % 0,0 l/m 0,2 km/h (0 Bft) N-NO 22 7,8 C 11,1 C 0,0 km/h (0 Bft)
11.05.2012 02:54 12,5 C 73 % 0,0 l/m 0,2 km/h (0 Bft) SO 135 7,8 C 11,0 C 0,0 km/h (0 Bft)
11.05.2012 02:56 12,5 C 73 % 0,0 l/m 0,2 km/h (0 Bft) N-NW 337 7,8 C 11,0 C 0,0 km/h (0 Bft)
11.05.2012 02:58 12,4 C 74 % 0,0 l/m 0,2 km/h (0 Bft) W-SW 247 7,9 C 10,9 C 0,0 km/h (0 Bft)
11.05.2012 03:00 12,4 C 74 % 0,0 l/m 0,0 km/h (0 Bft) W-NW 292 7,9 C 10,9 C 1,6 km/h (1 Bft)
11.05.2012 03:02 12,4 C 74 % 0,0 l/m 0,0 km/h (0 Bft) N 360 7,9 C 10,9 C 1,6 km/h (1 Bft)
11.05.2012 03:04 12,4 C 74 % 0,0 l/m 0,0 km/h (0 Bft) N-NO 22 7,9 C 10,9 C 0,0 km/h (0 Bft)
11.05.2012 03:06 12,3 C 74 % 0,0 l/m 0,0 km/h (0 Bft) N 360 7,8 C 10,8 C 0,0 km/h (0 Bft)
11.05.2012 03:08 12,3 C 75 % 0,0 l/m 0,0 km/h (0 Bft) O-SO 112 8,0 C 10,7 C 0,0 km/h (0 Bft)
11.05.2012 03:10 12,2 C 74 % 0,0 l/m 0,0 km/h (0 Bft) N 360 7,7 C 10,6 C 0,0 km/h (0 Bft)
11.05.2012 03:12 12,2 C 74 % 0,0 l/m 0,0 km/h (0 Bft) S-SO 157 7,7 C 10,6 C 0,0 km/h (0 Bft)
11.05.2012 03:14 12,2 C 74 % 0,0 l/m 0,0 km/h (0 Bft) N 360 7,7 C 10,6 C 0,0 km/h (0 Bft)
11.05.2012 03:16 12,2 C 74 % 0,0 l/m 0,0 km/h (0 Bft) O-SO 112 7,7 C 10,6 C 0,0 km/h (0 Bft)
11.05.2012 03:18 12,2 C 74 % 0,0 l/m 0,0 km/h (0 Bft) N-NW 337 7,7 C 10,6 C 0,0 km/h (0 Bft)
11.05.2012 03:20 12,3 C 74 % 0,0 l/m 0,0 km/h (0 Bft) N-NO 22 7,8 C 10,6 C 0,0 km/h (0 Bft)
11.05.2012 03:22 12,3 C 74 % 0,0 l/m 0,0 km/h (0 Bft) N 360 7,8 C 10,6 C 0,0 km/h (0 Bft)
11.05.2012 03:24 12,3 C 74 % 0,0 l/m 0,0 km/h (0 Bft) O-SO 112 7,8 C 10,6 C 0,0 km/h (0 Bft)
11.05.2012 03:26 12,3 C 74 % 0,0 l/m 0,0 km/h (0 Bft) O-SO 112 7,8 C 10,6 C 0,0 km/h (0 Bft)
11.05.2012 03:28 12,2 C 74 % 0,0 l/m 0,0 km/h (0 Bft) N 360 7,7 C 10,6 C 0,0 km/h (0 Bft)
11.05.2012 03:30 12,2 C 74 % 0,0 l/m 0,0 km/h (0 Bft) O-SO 112 7,7 C 10,6 C 0,0 km/h (0 Bft)
11.05.2012 03:32 12,1 C 74 % 0,0 l/m 0,0 km/h (0 Bft) N 360 7,6 C 10,6 C 0,0 km/h (0 Bft)
11.05.2012 03:34 12,1 C 74 % 0,0 l/m 0,0 km/h (0 Bft) N 360 7,6 C 10,6 C 0,0 km/h (0 Bft)
11.05.2012 03:36 12,0 C 74 % 0,0 l/m 0,0 km/h (0 Bft) N 360 7,5 C 10,5 C 0,0 km/h (0 Bft)
11.05.2012 03:38 12,0 C 74 % 0,0 l/m 0,0 km/h (0 Bft) N 360 7,5 C 10,5 C 0,0 km/h (0 Bft)
11.05.2012 03:40 12,0 C 75 % 0,0 l/m 0,0 km/h (0 Bft) W-SW 247 7,7 C 10,4 C 0,0 km/h (0 Bft)
11.05.2012 04:27 11,6 C 75 % 0,0 l/m 0,0 km/h (0 Bft) N-NO 22 7,3 C 10,1 C 0,0 km/h (0 Bft)
11.05.2012 05:27 11,8 C 74 % 0,0 l/m 0,2 km/h (0 Bft) NO 45 7,3 C 11,0 C 0,0 km/h (0 Bft)
11.05.2012 06:27 13,2 C 71 % 0,0 l/m 0,5 km/h (0 Bft) SO 135 8,1 C 12,4 C 3,1 km/h (1 Bft)
11.05.2012 07:27 22,3 C 51 % 0,0 l/m 0,2 km/h (0 Bft) SO 135 11,7 C 23,1 C 0,0 km/h (0 Bft)
11.05.2012 08:27 23,6 C 47 % 0,0 l/m 1,3 km/h (1 Bft) W 270 11,6 C 25,2 C 0,0 km/h (0 Bft)
11.05.2012 09:27 24,7 C 46 % 0,0 l/m 0,0 km/h (0 Bft) O-SO 112 12,3 C 30,9 C 0,0 km/h (0 Bft)
11.05.2012 10:27 28,5 C 36 % 0,0 l/m 2,6 km/h (1 Bft) S-SO 157 12,0 C 30,7 C 2,7 km/h (1 Bft)
11.05.2012 11:27 30,5 C 32 % 0,0 l/m 2,3 km/h (1 Bft) W 270 11,9 C 30,1 C 3,7 km/h (1 Bft)
11.05.2012 12:27 30,7 C 30 % 0,0 l/m 3,5 km/h (1 Bft) W-NW 292 11,1 C 28,1 C 3,2 km/h (1 Bft)
11.05.2012 13:27 30,9 C 29 % 0,0 l/m 3,7 km/h (1 Bft) W-SW 247 10,8 C 29,5 C 5,1 km/h (1 Bft)
11.05.2012 14:27 30,6 C 30 % 0,0 l/m 3,2 km/h (1 Bft) S-SW 202 11,0 C 30,7 C 4,5 km/h (1 Bft)
11.05.2012 15:27 31,3 C 30 % 0,0 l/m 4,2 km/h (1 Bft) S 180 11,6 C 31,3 C 5,8 km/h (2 Bft)
11.05.2012 16:27 31,3 C 31 % 0,0 l/m 2,7 km/h (1 Bft) SO 135 12,1 C 33,4 C 3,7 km/h (1 Bft)
11.05.2012 16:57 30,8 C 31 % 0,0 l/m 1,8 km/h (1 Bft) W-NW 292 11,7 C 34,0 C 5,8 km/h (2 Bft)
11.05.2012 16:58 30,7 C 31 % 0,0 l/m 2,4 km/h (1 Bft) S-SW 202 11,6 C 33,8 C 3,5 km/h (1 Bft)
11.05.2012 17:00 30,6 C 30 % 0,0 l/m 2,7 km/h (1 Bft) W 270 11,0 C 33,6 C 3,5 km/h (1 Bft)
11.05.2012 17:02 30,6 C 30 % 0,0 l/m 2,9 km/h (1 Bft) W 270 11,0 C 33,5 C 2,6 km/h (1 Bft)
11.05.2012 17:04 30,4 C 29 % 0,0 l/m 2,7 km/h (1 Bft) O-SO 112 10,3 C 33,3 C 4,0 km/h (1 Bft)
11.05.2012 17:06 30,4 C 29 % 0,0 l/m 3,1 km/h (1 Bft) S-SW 202 10,3 C 33,3 C 5,0 km/h (1 Bft)
11.05.2012 17:08 30,4 C 30 % 0,0 l/m 2,9 km/h (1 Bft) O-SO 112 10,9 C 33,1 C 5,0 km/h (1 Bft)
11.05.2012 17:10 30,3 C 33 % 0,0 l/m 2,7 km/h (1 Bft) S-SW 202 12,2 C 32,9 C 3,1 km/h (1 Bft)
11.05.2012 17:12 30,3 C 31 % 0,0 l/m 2,9 km/h (1 Bft) S 180 11,3 C 32,9 C 3,5 km/h (1 Bft)
11.05.2012 17:14 30,3 C 30 % 0,0 l/m 3,5 km/h (1 Bft) S-SW 202 10,8 C 33,0 C 5,5 km/h (1 Bft)
11.05.2012 17:16 30,3 C 30 % 0,0 l/m 3,7 km/h (1 Bft) N 360 10,8 C 32,9 C 5,5 km/h (1 Bft)
11.05.2012 17:18 30,1 C 29 % 0,0 l/m 3,7 km/h (1 Bft) W-SW 247 10,1 C 32,7 C 5,6 km/h (1 Bft)
11.05.2012 17:20 30,1 C 29 % 0,0 l/m 3,9 km/h (1 Bft) W 270 10,1 C 32,4 C 5,6 km/h (1 Bft)
11.05.2012 17:22 29,9 C 30 % 0,0 l/m 4,0 km/h (1 Bft) W-SW 247 10,4 C 32,5 C 5,5 km/h (1 Bft)
11.05.2012 17:24 29,8 C 31 % 0,0 l/m 3,7 km/h (1 Bft) S-SW 202 10,8 C 32,6 C 3,1 km/h (1 Bft)
11.05.2012 17:26 29,8 C 32 % 0,0 l/m 3,2 km/h (1 Bft) O-SO 112 11,3 C 32,7 C 5,8 km/h (2 Bft)
11.05.2012 17:28 29,7 C 33 % 0,0 l/m 3,1 km/h (1 Bft) W-SW 247 11,7 C 32,7 C 5,8 km/h (2 Bft)
11.05.2012 17:30 29,7 C 29 % 0,0 l/m 3,2 km/h (1 Bft) W-SW 247 9,7 C 32,4 C 6,1 km/h (2 Bft)
11.05.2012 17:32 29,6 C 29 % 0,0 l/m 2,9 km/h (1 Bft) W-SW 247 9,7 C 32,1 C 6,1 km/h (2 Bft)
11.05.2012 17:34 29,6 C 30 % 0,0 l/m 2,4 km/h (1 Bft) W 270 10,2 C 32,0 C 2,1 km/h (1 Bft)
11.05.2012 17:36 29,6 C 32 % 0,0 l/m 2,4 km/h (1 Bft) SO 135 11,1 C 32,3 C 1,6 km/h (1 Bft)
11.05.2012 17:38 29,5 C 31 % 0,0 l/m 2,1 km/h (1 Bft) S-SW 202 10,6 C 32,5 C 4,5 km/h (1 Bft)
11.05.2012 17:40 29,5 C 30 % 0,0 l/m 1,8 km/h (1 Bft) O-SO 112 10,1 C 32,6 C 4,5 km/h (1 Bft)
11.05.2012 17:42 29,4 C 32 % 0,0 l/m 1,6 km/h (1 Bft) SW 225 11,0 C 32,5 C 2,6 km/h (1 Bft)
11.05.2012 17:44 29,5 C 31 % 0,0 l/m 1,9 km/h (1 Bft) W 270 10,6 C 32,3 C 4,2 km/h (1 Bft)
11.05.2012 17:46 29,5 C 32 % 0,0 l/m 2,6 km/h (1 Bft) O-SO 112 11,0 C 32,1 C 4,2 km/h (1 Bft)
11.05.2012 17:48 29,4 C 32 % 0,0 l/m 3,2 km/h (1 Bft) S-SO 157 11,0 C 32,0 C 3,5 km/h (1 Bft)
11.05.2012 17:50 29,3 C 32 % 0,0 l/m 3,4 km/h (1 Bft) S 180 10,9 C 32,0 C 7,1 km/h (2 Bft)
11.05.2012 17:51 29,3 C 32 % 0,0 l/m 3,4 km/h (1 Bft) S 180 10,9 C 32,0 C 7,1 km/h (2 Bft)
11.05.2012 18:27 27,9 C 38 % 0,0 l/m 0,3 km/h (0 Bft) SO 135 12,2 C 30,1 C 0,0 km/h (0 Bft)
11.05.2012 19:27 26,7 C 41 % 0,0 l/m 4,0 km/h (1 Bft) O-SO 112 12,3 C 29,9 C 2,9 km/h (1 Bft)
11.05.2012 20:27 23,5 C 48 % 0,0 l/m 0,5 km/h (0 Bft) N-NO 22 11,8 C 24,9 C 2,1 km/h (1 Bft)
11.05.2012 21:27 20,2 C 52 % 0,0 l/m 0,8 km/h (0 Bft) SW 225 10,0 C 18,8 C 3,1 km/h (1 Bft)
11.05.2012 22:27 19,3 C 55 % 0,0 l/m 3,2 km/h (1 Bft) N-NO 22 10,0 C 18,7 C 4,0 km/h (1 Bft)
11.05.2012 23:27 18,0 C 61 % 0,0 l/m 1,8 km/h (1 Bft) N-NO 22 10,4 C 16,9 C 2,9 km/h (1 Bft)
_ Min-Zeit 04:27 13:27 - 00:38 - - 05:27 04:27 00:00
Minimum _ 11,6 C 29 % - 0,0 km/h (0 Bft) - - 7,3 C 10,1 C 0,0 km/h (0 Bft)
_ Max-Zeit 15:27 03:08 00:00 15:27 - - 19:27 16:57 17:50
Maximum _ 31,3 C 75 % 0,0 l/m 4,2 km/h
S (1 Bft)
- - 12,3 C 34,0 C 7,1 km/h
S (2 Bft)
Durchschnitt _ 22,7 C 49 % #0,0 l/m 1,7 km/h (1 Bft) S-SW - 10,4 C 23,0 C 2,4 km/h (1 Bft)